Wind_Speed
5 4 4 3 2 1 1 3 5 6 7 8 10 11 11 11 11 11 11 11 10 10 10 9 9 9 8 8 8 8 8 8 8 8 8 8 8 8 9 8 8 8 8 8 7 7 7 7 6
6 4 4 4 3 3 3 3 5 6 8 9 9 10 11 11 11 11 11 11 11 10 10 10 10 9 8 8 9 9 9 9 8 8 8 8 9 9 10 9 9 9 9 9 8 8 7 7 7
6 6 5 5 5 4 5 5 6 7 8 9 9 10 11 11 11 11 11 11 11 11 10 10 10 10 9 8 9 9 10 10 10 10 10 10 10 10 10 10 10 10 10 10 9 9 8 8 8
7 7 6 5 5 5 5 6 6 7 8 9 10 11 11 11 11 12 11 11 11 11 11 10 10 10 10 10 10 10 11 11 12 12 12 11 11 11 11 11 12 11 11 11 11 9 9 9 9
8 8 6 6 5 4 4 5 6 7 7 8 10 12 13 13 13 13 12 12 12 11 11 11 10 10 10 10 10 11 12 12 13 13 13 13 13 12 12 12 13 13 12 12 12 11 10 10 10
9 8 8 7 6 5 4 4 5 6 7 9 10 11 13 14 14 14 14 13 13 12 12 12 12 11 11 11 11 12 13 13 14 13 13 14 14 13 13 13 13 14 13 13 13 12 12 12 12
9 9 10 9 7 6 5 5 5 6 8 10 11 12 14 14 15 15 15 14 13 13 13 13 13 12 11 11 12 12 13 14 14 15 14 14 15 14 14 14 14 14 14 14 14 14 13 13 13
10 9 9 9 7 6 6 5 5 7 9 10 11 12 13 15 15 16 15 14 13 13 13 13 13 12 12 11 12 13 14 14 15 15 15 15 15 15 15 15 14 15 15 15 15 14 14 14 14
10 10 8 8 6 6 7 7 7 8 9 10 11 13 14 15 16 15 15 15 14 14 13 12 12 13 12 11 12 13 14 14 15 15 16 16 16 16 16 15 15 15 15 15 15 14 14 14 14
10 10 9 9 8 8 8 8 8 9 9 10 12 13 15 16 16 16 16 16 15 14 13 13 13 13 13 12 13 13 14 14 16 16 17 16 16 16 15 15 16 15 15 15 15 15 14 15 15
10 10 9 9 9 9 9 8 9 9 10 11 13 14 15 17 17 17 16 16 15 14 14 13 13 13 13 13 13 13 14 15 16 16 16 16 17 17 17 16 16 16 16 16 15 15 15 15 15
11 10 10 10 10 11 10 9 9 9 11 12 14 15 15 15 17 17 15 14 14 14 14 14 13 13 13 13 13 14 15 15 16 16 16 16 17 17 16 16 15 16 16 16 16 16 15 15 15
12 11 10 10 11 12 11 11 10 10 11 13 15 15 16 15 16 16 14 14 14 14 15 15 15 14 14 14 14 15 16 16 16 16 15 16 16 16 15 14 15 16 16 16 16 16 16 16 16
13 12 11 11 11 12 12 12 12 12 13 14 14 15 16 15 15 16 15 15 15 15 15 15 15 14 14 15 15 16 16 17 16 16 16 16 16 16 16 16 16 16 16 17 17 17 17 17 18
15 14 13 12 12 13 13 12 13 13 14 15 15 15 15 15 16 16 15 15 15 15 15 15 14 15 15 16 16 17 17 17 17 17 17 17 17 17 17 17 16 16 17 17 18 18 19 19 19
16 15 13 12 14 15 15 14 14 14 15 15 15 14 15 15 16 15 15 15 16 16 16 16 16 16 16 16 16 17 18 18 18 18 18 18 17 18 18 17 17 17 17 18 18 19 20 20 20
17 16 14 14 15 15 15 15 14 15 15 14 15 15 15 15 16 17 16 17 17 18 18 18 18 17 17 18 19 19 20 19 19 19 19 18 19 19 18 18 18 18 19 19 19 20 21 21 21
16 16 15 14 16 17 16 16 16 16 16 16 15 15 15 16 17 17 17 18 19 20 20 20 18 18 20 20 20 20 20 19 19 20 19 19 19 19 19 19 19 19 20 20 21 22 22 22 22
16 16 15 15 17 18 17 17 17 17 17 16 16 16 17 18 18 18 18 19 20 21 20 20 20 20 21 20 20 20 19 19 19 20 20 20 20 21 20 21 21 21 21 22 23 23 23 23 22
18 18 17 17 17 19 19 18 18 18 18 18 19 19 19 18 18 19 19 19 20 20 20 21 21 21 21 21 20 19 19 19 20 20 20 20 21 21 22 22 22 22 22 23 23 24 24 23 23
19 18 18 19 19 19 20 19 18 18 19 20 20 20 19 18 19 19 19 19 19 19 20 21 21 22 22 21 21 20 20 20 20 20 20 21 22 22 23 23 23 22 22 23 23 24 24 24 24
17 18 19 20 20 21 21 21 18 19 20 20 20 20 19 19 20 20 20 20 20 20 21 21 22 22 22 21 21 21 20 20 20 21 21 21 22 23 23 24 23 24 24 24 24 24 24 25 25
17 18 19 21 22 22 21 22 20 20 20 20 20 20 20 20 20 19 20 20 20 20 20 21 22 21 21 21 21 21 21 21 21 21 21 21 21 22 22 23 24 24 24 24 25 25 25 25 26
18 19 20 22 23 23 21 23 22 20 21 21 20 19 20 19 20 20 19 19 20 20 21 21 21 22 22 22 22 22 22 22 22 22 22 21 21 21 22 23 24 25 26 26 26 26 25 26 26
18 19 21 23 23 23 22 24 22 21 20 20 20 20 20 20 19 19 19 20 20 21 22 21 22 23 22 22 22 23 23 22 22 22 21 21 21 22 22 23 24 25 26 27 26 27 26 27 27
19 20 22 23 24 23 23 23 21 21 21 20 21 21 21 20 21 21 21 21 21 22 22 22 23 23 23 23 23 24 23 22 22 21 21 21 22 22 23 24 25 25 26 26 26 27 27 27 28
19 20 21 23 24 25 24 22 21 21 21 21 21 22 22 22 22 21 21 21 22 22 23 24 24 24 24 24 23 23 23 23 22 21 22 22 22 23 24 25 25 25 26 26 26 27 28 28 28
19 19 21 22 24 25 24 22 22 21 21 21 21 21 21 22 22 21 21 22 22 23 24 25 26 25 24 24 23 23 24 23 23 23 23 23 23 23 24 24 25 25 25 26 27 27 28 29 29
19 20 21 22 23 24 24 22 21 21 21 21 21 21 21 21 21 21 21 22 22 24 24 24 24 24 24 23 23 24 24 23 23 24 23 24 24 24 25 25 25 25 25 26 26 27 28 29 29
20 20 21 23 23 24 24 22 20 20 21 21 20 20 21 21 21 21 21 22 23 24 24 24 24 25 24 23 23 23 23 23 23 23 24 24 24 24 25 25 25 25 26 25 26 26 27 27 28
Wind_Direction
183 188 198 204 213 274 353 360 357 2 3 356 354 350 346 343 342 340 336 333 331 326 326 320 318 319 322 324 323 319 315 315 316 317 316 315 313 309 306 303 300 298 295 292 291 294 289 284 284
208 215 224 236 248 279 313 331 343 346 347 347 348 347 343 341 341 338 333 330 326 324 320 317 315 313 314 313 313 310 306 307 308 308 309 309 306 302 301 301 299 295 290 286 287 287 283 282 281
225 233 240 250 261 285 305 313 326 339 343 349 346 344 345 341 339 336 331 325 325 323 316 314 315 310 307 305 304 304 299 298 300 301 300 299 299 298 295 294 295 293 288 283 283 281 278 277 278
235 237 247 255 267 284 299 303 315 332 335 344 345 346 344 339 335 332 329 325 323 322 317 314 311 309 305 300 299 299 296 294 297 297 295 293 293 293 290 290 290 289 286 282 279 277 276 276 276
241 240 248 255 263 278 295 309 315 336 339 340 345 346 342 336 331 332 332 329 324 320 316 310 307 308 305 301 298 296 293 293 295 295 292 289 289 288 286 286 285 283 282 280 276 274 273 275 276
247 248 250 254 267 279 297 322 336 344 341 340 340 341 337 331 328 329 331 330 327 324 317 312 308 306 305 302 297 295 294 292 292 291 289 287 286 284 282 283 283 281 281 278 274 272 271 270 271
248 253 256 263 274 277 297 313 327 336 331 330 331 331 330 329 329 327 328 327 325 323 317 309 304 300 298 296 295 296 296 294 294 293 289 285 284 281 280 281 283 278 275 272 272 271 269 270 270
245 252 260 267 279 278 296 308 316 324 329 327 326 330 330 329 327 324 323 323 321 321 317 309 301 298 296 294 296 297 296 296 296 297 289 286 287 282 278 278 278 273 269 270 272 271 270 270 269
244 249 258 264 279 283 296 301 306 315 320 327 328 330 328 327 329 325 321 319 320 320 317 312 305 301 300 300 300 301 300 297 296 296 290 286 287 285 279 276 275 270 269 270 271 270 271 270 268
251 252 258 268 277 280 296 302 304 306 308 316 321 324 324 325 328 325 319 316 315 315 314 311 307 305 306 305 303 302 301 300 297 296 292 288 288 286 279 276 274 271 269 268 268 269 269 270 267
256 256 262 269 277 283 288 297 305 302 306 311 315 317 318 323 324 320 316 315 316 314 312 308 304 306 307 305 304 304 303 301 299 297 295 291 288 284 279 280 274 269 269 265 266 269 269 270 269
252 255 263 273 279 283 287 289 299 301 305 312 317 319 316 318 321 321 315 314 317 315 311 307 304 305 307 307 309 306 304 302 301 296 291 289 288 283 280 279 275 270 269 265 264 266 268 270 271
249 252 263 268 273 282 291 292 296 296 306 314 315 313 314 316 319 317 314 315 314 313 310 309 307 307 308 309 310 308 305 302 300 296 293 290 288 288 284 280 275 271 270 267 265 266 267 269 269
250 256 261 269 277 283 290 293 293 294 300 308 311 310 310 312 314 316 309 310 309 309 310 312 310 310 311 310 309 306 305 302 298 296 292 289 288 288 283 281 277 273 271 268 266 267 267 267 267
252 254 257 265 274 281 287 291 293 293 296 302 305 305 308 311 309 312 309 308 309 310 311 312 310 313 311 309 306 306 303 301 298 295 292 288 286 285 283 278 274 273 270 268 267 268 266 267 268
252 252 254 265 272 280 283 289 291 288 293 298 303 305 308 307 309 311 309 311 311 312 311 309 310 311 309 306 305 304 303 300 297 294 292 287 283 283 282 277 274 273 269 268 268 268 267 268 269
251 255 260 269 275 279 282 285 288 286 291 295 303 306 308 305 306 308 306 308 308 311 312 312 312 311 309 306 304 301 299 297 294 294 291 286 284 284 282 278 275 272 269 267 267 268 267 266 268
253 258 263 270 274 277 280 282 285 287 290 295 299 301 303 306 308 307 306 307 309 309 313 314 314 312 310 307 304 300 297 295 293 292 289 286 285 284 281 279 275 272 270 268 268 269 269 268 267
255 259 262 270 275 277 279 280 283 285 288 290 293 298 301 303 308 308 307 307 309 310 312 312 312 310 310 308 305 302 298 295 293 290 288 286 284 283 281 280 277 274 271 271 270 269 269 268 268
258 263 268 272 274 276 276 279 281 284 286 287 290 294 297 300 304 306 308 309 310 308 308 308 313 310 309 309 307 304 299 296 294 291 288 287 285 283 280 277 276 276 274 273 272 272 271 269 268
260 265 272 275 274 275 277 280 280 282 286 286 288 291 294 298 301 302 304 307 307 308 309 311 310 309 308 307 306 305 300 296 293 291 288 287 285 282 279 277 278 279 279 278 276 273 271 268 267
261 267 272 274 274 275 280 284 283 285 285 285 286 290 292 295 297 300 302 303 306 308 310 313 311 308 307 307 307 304 303 300 296 292 289 286 283 281 280 279 278 277 277 277 276 273 270 268 266
267 268 271 274 275 276 278 284 287 288 289 289 289 288 290 294 297 299 300 302 305 309 310 311 310 310 308 307 307 307 306 303 299 294 290 286 285 283 281 279 278 276 276 276 275 273 270 269 268
266 268 273 276 277 277 279 281 285 287 291 291 291 291 291 291 295 298 299 301 305 307 307 307 307 307 307 306 305 306 306 304 302 298 292 288 287 285 282 279 279 278 276 275 273 272 270 269 270
267 272 276 277 278 279 282 282 283 287 288 290 292 294 294 294 296 297 299 302 304 304 305 305 305 305 305 305 304 302 302 303 302 298 293 290 287 286 285 283 282 281 279 276 274 272 270 269 269
272 274 276 280 283 283 283 284 287 289 289 289 291 293 296 298 298 301 303 305 303 304 307 306 304 304 304 304 304 303 301 300 299 297 293 291 290 289 288 286 286 284 281 277 274 272 271 269 269
272 274 278 280 281 283 285 286 287 290 292 291 292 294 296 299 300 302 305 306 305 304 305 305 305 304 305 305 304 303 301 299 297 295 291 291 291 288 288 288 286 284 282 277 274 272 270 269 268
273 276 278 279 281 284 286 287 290 292 296 294 293 296 296 297 298 301 304 306 305 306 304 304 304 306 308 307 306 304 303 301 298 295 292 291 290 289 288 288 287 285 283 280 276 273 271 270 268
273 276 279 280 280 283 287 291 293 296 298 296 295 297 295 296 298 302 305 307 306 305 306 307 308 308 307 307 306 305 304 303 302 297 295 293 291 289 290 290 289 287 284 281 278 275 274 270 268
273 278 280 280 279 280 285 292 293 295 296 295 294 294 295 296 299 302 305 305 306 307 307 310 311 310 308 308 308 309 308 306 305 303 302 299 293 291 291 291 291 288 285 283 279 276 274 271 269
Height
5892 5892 5893 5894 5895 5894 5893 5893 5892 5891 5891 5890 5890 5889 5889 5889 5889 5890 5887 5884 5884 5883 5882 5882 5881 5879 5879 5878 5877 5877 5877 5876 5876 5876 5876 5876 5875 5875 5876 5876 5876 5876 5876 5876 5876 5877 5877 5878 5878
5892 5893 5894 5894 5894 5893 5893 5892 5892 5891 5891 5890 5890 5889 5888 5887 5887 5886 5884 5883 5882 5882 5881 5880 5879 5878 5877 5876 5876 5875 5875 5875 5874 5874 5874 5874 5874 5874 5874 5874 5874 5874 5874 5874 5875 5875 5876 5876 5877
5892 5892 5894 5893 5893 5893 5893 5892 5891 5890 5890 5889 5889 5888 5887 5887 5886 5884 5883 5882 5881 5880 5879 5878 5877 5876 5876 5875 5874 5874 5873 5873 5873 5873 5872 5872 5872 5872 5872 5872 5872 5872 5872 5872 5873 5873 5874 5874 5875
5892 5893 5893 5893 5892 5892 5891 5891 5890 5889 5888 5888 5888 5887 5886 5886 5885 5883 5882 5881 5879 5878 5877 5876 5875 5875 5874 5873 5872 5872 5871 5871 5871 5871 5870 5870 5870 5869 5869 5870 5870 5870 5870 5871 5871 5871 5872 5872 5873
5891 5892 5892 5891 5891 5890 5890 5889 5889 5888 5887 5888 5887 5886 5885 5884 5883 5882 5880 5879 5878 5877 5876 5874 5873 5872 5872 5871 5871 5870 5870 5869 5869 5868 5868 5867 5867 5867 5867 5867 5867 5867 5868 5868 5868 5869 5870 5870 5871
5891 5891 5891 5890 5890 5889 5889 5888 5888 5887 5887 5886 5886 5885 5884 5883 5882 5880 5879 5877 5876 5874 5874 5873 5871 5871 5870 5869 5869 5868 5867 5867 5866 5866 5865 5865 5864 5864 5864 5864 5864 5864 5865 5865 5866 5866 5867 5868 5868
5890 5890 5889 5889 5889 5888 5888 5887 5887 5886 5886 5885 5884 5884 5883 5882 5880 5878 5877 5875 5874 5872 5871 5870 5869 5868 5868 5867 5866 5865 5865 5864 5864 5863 5863 5862 5862 5861 5861 5861 5861 5861 5862 5862 5863 5863 5864 5865 5866
5887 5889 5888 5888 5887 5887 5887 5886 5886 5885 5884 5884 5883 5882 5881 5880 5878 5876 5874 5873 5871 5870 5869 5868 5867 5866 5865 5864 5863 5863 5862 5861 5861 5860 5859 5859 5859 5858 5858 5858 5858 5858 5858 5859 5860 5860 5861 5862 5862
5885 5887 5886 5886 5886 5886 5886 5885 5885 5884 5883 5882 5881 5880 5879 5877 5875 5873 5872 5870 5869 5868 5866 5865 5864 5863 5862 5861 5861 5860 5859 5858 5858 5857 5856 5856 5855 5855 5855 5855 5854 5855 5855 5856 5856 5857 5857 5858 5859
5883 5884 5885 5885 5884 5884 5884 5884 5883 5882 5882 5881 5880 5878 5877 5874 5873 5871 5869 5868 5866 5865 5863 5862 5861 5860 5859 5858 5858 5857 5856 5856 5855 5854 5853 5852 5852 5851 5851 5851 5851 5851 5852 5852 5852 5853 5854 5854 5855
5881 5883 5883 5883 5883 5882 5882 5882 5881 5880 5880 5879 5878 5876 5874 5872 5870 5868 5866 5865 5863 5862 5861 5859 5858 5857 5856 5855 5855 5854 5853 5852 5851 5850 5849 5849 5848 5848 5847 5848 5848 5848 5848 5848 5849 5849 5850 5851 5852
5880 5881 5881 5881 5881 5880 5880 5880 5879 5878 5878 5877 5875 5874 5872 5870 5868 5866 5864 5862 5861 5859 5858 5856 5855 5854 5854 5853 5851 5851 5850 5849 5848 5847 5846 5845 5844 5844 5844 5844 5844 5844 5844 5845 5845 5846 5846 5847 5848
5878 5879 5879 5879 5879 5878 5878 5877 5877 5876 5876 5874 5873 5871 5869 5867 5865 5863 5861 5860 5858 5857 5855 5853 5852 5851 5851 5850 5848 5848 5847 5845 5844 5843 5842 5841 5841 5840 5840 5840 5840 5840 5840 5841 5841 5842 5842 5843 5844
5876 5876 5877 5877 5876 5876 5875 5875 5874 5874 5873 5872 5870 5868 5867 5865 5863 5861 5859 5857 5856 5854 5852 5850 5849 5848 5847 5846 5845 5844 5843 5841 5840 5839 5838 5837 5837 5836 5836 5836 5836 5836 5836 5837 5837 5838 5838 5839 5840
5873 5875 5875 5875 5874 5873 5873 5873 5872 5871 5870 5869 5867 5865 5864 5862 5860 5858 5856 5855 5853 5852 5850 5848 5847 5846 5844 5843 5841 5840 5839 5837 5836 5835 5834 5833 5832 5832 5831 5831 5831 5832 5832 5832 5833 5833 5834 5835 5835
5871 5872 5873 5872 5871 5870 5871 5870 5870 5868 5867 5866 5864 5862 5861 5859 5857 5856 5854 5852 5851 5849 5847 5846 5844 5842 5841 5839 5838 5836 5834 5833 5832 5830 5829 5829 5828 5827 5827 5827 5827 5827 5827 5828 5828 5829 5829 5830 5830
5868 5869 5869 5870 5868 5867 5866 5866 5866 5865 5863 5862 5861 5860 5858 5856 5855 5853 5851 5849 5848 5846 5844 5842 5840 5838 5837 5835 5833 5832 5830 5828 5827 5826 5825 5824 5823 5823 5822 5822 5822 5822 5822 5823 5823 5824 5824 5825 5825
5866 5866 5866 5866 5865 5864 5863 5863 5863 5861 5860 5859 5858 5857 5855 5853 5851 5850 5848 5846 5845 5843 5841 5839 5836 5834 5832 5830 5828 5826 5825 5823 5822 5821 5820 5819 5818 5817 5817 5817 5817 5817 5817 5817 5818 5818 5818 5819 5820
5862 5862 5862 5863 5861 5860 5860 5859 5859 5858 5857 5856 5855 5853 5852 5850 5848 5846 5845 5843 5841 5839 5837 5834 5832 5830 5828 5826 5823 5821 5819 5818 5816 5815 5814 5813 5812 5812 5812 5811 5811 5811 5811 5811 5811 5812 5812 5813 5813
5858 5859 5859 5859 5858 5857 5856 5856 5856 5854 5853 5852 5851 5850 5848 5847 5845 5843 5841 5839 5837 5835 5833 5830 5828 5826 5824 5821 5818 5816 5814 5812 5811 5809 5808 5807 5806 5806 5805 5805 5805 5805 5805 5805 5805 5805 5806 5806 5806
5855 5855 5856 5855 5854 5853 5852 5852 5852 5851 5849 5848 5847 5846 5844 5843 5842 5840 5838 5836 5834 5831 5829 5827 5824 5822 5819 5816 5814 5811 5809 5807 5805 5803 5802 5801 5800 5799 5799 5798 5798 5799 5799 5799 5799 5799 5799 5799 5800
5851 5852 5852 5850 5849 5849 5849 5847 5848 5847 5845 5844 5843 5842 5840 5839 5838 5836 5834 5832 5830 5828 5825 5822 5820 5817 5814 5811 5809 5806 5803 5801 5799 5797 5796 5795 5794 5793 5792 5792 5792 5792 5792 5792 5792 5792 5792 5792 5793
5848 5848 5847 5846 5845 5844 5844 5843 5844 5843 5841 5840 5839 5837 5836 5835 5833 5832 5830 5828 5826 5823 5821 5818 5815 5812 5809 5806 5804 5801 5798 5796 5793 5792 5790 5789 5788 5787 5786 5785 5785 5785 5785 5785 5785 5785 5785 5785 5786
5844 5844 5843 5842 5841 5840 5841 5839 5838 5839 5837 5836 5834 5833 5831 5830 5829 5827 5826 5824 5821 5819 5816 5813 5810 5807 5804 5802 5799 5796 5794 5791 5788 5786 5785 5783 5782 5781 5780 5779 5779 5778 5778 5778 5778 5778 5778 5778 5778
5840 5840 5839 5837 5836 5836 5837 5834 5834 5835 5833 5832 5830 5828 5827 5826 5824 5823 5821 5819 5817 5814 5811 5809 5806 5802 5800 5797 5794 5791 5788 5785 5783 5781 5779 5778 5776 5775 5774 5773 5772 5771 5770 5770 5770 5770 5770 5771 5771
5836 5836 5835 5834 5832 5832 5831 5829 5831 5830 5828 5827 5826 5824 5823 5821 5820 5818 5817 5814 5812 5809 5806 5803 5800 5797 5795 5792 5789 5786 5783 5780 5778 5776 5774 5772 5771 5769 5768 5766 5765 5764 5763 5762 5762 5762 5763 5763 5763
5832 5831 5831 5829 5827 5826 5826 5825 5826 5825 5824 5823 5822 5820 5819 5817 5816 5814 5812 5810 5807 5805 5801 5798 5795 5792 5789 5786 5783 5780 5777 5775 5772 5770 5768 5766 5765 5763 5761 5759 5758 5756 5755 5754 5754 5754 5754 5755 5755
5828 5827 5826 5825 5823 5821 5821 5821 5821 5820 5819 5819 5818 5817 5815 5813 5811 5809 5807 5805 5802 5799 5796 5793 5790 5787 5784 5780 5777 5774 5771 5769 5766 5763 5761 5760 5758 5756 5754 5752 5750 5749 5747 5746 5746 5746 5746 5746 5746
5824 5824 5822 5821 5819 5818 5816 5819 5818 5817 5815 5814 5814 5812 5811 5809 5807 5805 5802 5800 5797 5794 5791 5788 5785 5782 5779 5775 5772 5769 5766 5762 5759 5757 5755 5753 5750 5749 5747 5745 5743 5741 5740 5739 5738 5737 5737 5737 5737
5820 5819 5818 5817 5815 5814 5812 5816 5813 5812 5811 5810 5809 5808 5806 5804 5802 5800 5797 5795 5792 5789 5786 5784 5781 5777 5774 5770 5767 5764 5760 5757 5754 5751 5749 5746 5744 5742 5740 5738 5736 5734 5732 5731 5730 5729 5729 5728 5729